Location: Helion Bumpstead
(52.0500°N, 0.4000°E)
Time: 20:49:53
(UTC+00:00)

Cosmos 1371 Rocket - Pass Details

Date: 15 November 2025
Orbit: 749 x 785 km, 74.0° (Epoch: 06 December)

Event Time Altitude Azimuth Distance (km) Brightness Sun altitude
Rises 05:41:13 0° 220° (SW) 3,242 7.0 -14.8°
Reaches altitude 10° 05:43:39 10° 225° (SW) 2,324 6.2 -14.4°
Maximum altitude 05:48:48 52° 301° (WNW) 971 4.2 -13.7°
Drops below altitude 10° 05:54:02 10° 18° (NNE) 2,355 6.6 -12.9°
Sets 05:56:31 0° 24° (NNE) 3,290 7.4 -12.5°
